Location: Unspecified
(47.8330°N, 0.0000°E)
Time: 14:33:23
(UTC+00:00)

VELOX 1 - Pass Details

Date: 01 September 2019
Orbit: 629 x 643 km, 98.2° (Epoch: 17 September)

Event Time Altitude Azimuth Distance (km) Brightness Sun altitude
Exits shadow 00:54:26 30° 12° (NNE) 1,152 ? -32.5°
Drops below altitude 10° 00:56:50 10° 356° (N) 2,030 ? -32.3°
Sets 00:59:05 0° 351° (N) 2,945 ? -32.2°
